map of PVG home
Great Circle Mapper logo
PVG - Airport
Location
City:  Shanghai, Shanghai, China
Name:Pudong International Airport
ICAO:ZSPD
IATA:PVG

Details
Type:Airport (Aerodrome, Airfield)
Use:Public/Civil, International (customs port of entry)
Latitude:3109'N (31.145)
Longitude:12148'E (121.793)
Elevation:13 ft (4 m)
Variation:5.87W (WMM2015 magnetic declination)
-0.08 annual change
Runways:4
Longest:13123 × 197 ft (4000 × 60 m), paved

Time
Time Zone:UTC+8
Local Time:

Weather
METAR:ZSPD 302330Z 15006MPS 9999 BKN015 29/26 Q1010 NOSIG

Related Locations
Nearby:
Farthest:COC: 12433 mi / 20008 km
Concordia [Comodoro Pierrestegui], ER, AR

Find:

   beyond  
but within

Other Information
Maps:
NOTAMs:
Links:
Sources:

  
flag of China   

Sectional Chart

Flight Planning
at skyvector.com

Satellite Image

Google Maps Satellite view

 

Copyright © 2004-2016 Karl L. Swartz. All rights reserved.
The Great Circle Mapper name and logo are trademarks of the Great Circle Mapper.
All other trademarks mentioned herein belong to their respective owners.
Please see credits for attibutions and further copyright information.

  Follow gcmap on Facebook Follow gcmap on Twitter Follow gcmap on Google+ GCmap on LinkedIn

hCard Microformat

Geo Microformat